Weather History for Craig, CO

Change the Weather History Date:

Thursday, February 6, 2014

  Actual Average Record
Temperature  
Mean Temperature 7 °F 18 °F  
Max Temperature 19 °F 32 °F 50 °F (2000)
Min Temperature -6 °F 5 °F -15 °F (2003)
Degree Days  
Heating Degree Days 58 47  
Month to date heating degree days 344 282  
Since 1 July heating degree days 5448 5366  
Cooling Degree Days 0 0  
Month to date cooling degree days 0 0  
Year to date cooling degree days 0 0  
Moisture  
Dew Point -2 °F    
Average Humidity 75    
Maximum Humidity 84    
Minimum Humidity 66    
Precipitation  
Precipitation 0.00 in 0.03 in 0.13 in (2008)
Month to date precipitation 0.16 0.17  
Year to date precipitation 1.19 1.05  
Sea Level Pressure  
Sea Level Pressure 30.13 in    
Wind  
Wind Speed 1 mph (ESE)    
Max Wind Speed 7 mph    
Max Gust Speed 8 mph    
Visibility 10 miles    
Events      
T = Trace of Precipitation, MM = Missing Value Source: NWS Daily Summary

Daily Weather History Graph

Daily Weather History Graph

Search for Another Location

Airport:

Trip Planner

Search our weather history database for the weather conditions in past years. The results will help you decide how hot, cold, wet, or windy it might be!

Date:

Astronomy

Feb. 06, 2014 Rise Set
Actual Time 7:14 AM MST 5:34 PM MST
Civil Twilight 6:45 AM MST 6:03 PM MST
Nautical Twilight 6:13 AM MST 6:35 PM MST
Astronomical Twilight 5:41 AM MST 7:07 PM MST
Moon 11:08 AM MST (2/6) 12:33 AM MST (2/6)
Length of Visible Light 11h 17m
Length of Day
10h 20m
Waxing Crescent, 50% of the Moon is Illuminated
Feb 6
Waxing Crescent
Feb 6
First Quarter
Feb 14
Full
Feb 22
Last Quarter
Mar 1
New

Hourly Weather History & Observations

Time (MST) Temp. Windchill Dew Point Humidity Pressure Visibility Wind Dir Wind Speed Gust Speed Precip Events Conditions
12:53 AM -2.0 °F - -8.0 °F 76% 30.28 in 10.0 mi Calm Calm - N/A   Clear
1:25 AM -5.1 °F - -9.9 °F 80% 29.96 in 10.0 mi Calm Calm - N/A   Scattered Clouds
1:29 AM -4.0 °F - -9.0 °F 79% 29.96 in 10.0 mi Calm Calm - N/A   Mostly Cloudy
1:53 AM -5.1 °F -13.6 °F -9.0 °F 83% 30.28 in 10.0 mi NW 3.5 mph - N/A   Overcast
2:53 AM -0.9 °F -8.9 °F -7.1 °F 75% 30.28 in 10.0 mi ENE 3.5 mph - N/A   Overcast
3:53 AM -2.0 °F -10.1 °F -9.0 °F 72% 30.28 in 10.0 mi East 3.5 mph - N/A   Overcast
4:05 AM -2.0 °F - -9.0 °F 72% 29.97 in 10.0 mi Calm Calm - N/A   Overcast
4:53 AM -2.0 °F - -9.0 °F 72% 30.29 in 10.0 mi Calm Calm - N/A   Overcast
5:04 AM -2.0 °F -10.1 °F -9.0 °F 72% 29.97 in 10.0 mi North 3.5 mph - N/A   Overcast
5:14 AM -2.0 °F - -9.0 °F 72% 29.97 in 10.0 mi Calm Calm - N/A   Overcast
5:53 AM -2.9 °F - -8.0 °F 79% 30.30 in 10.0 mi Calm Calm - N/A   Overcast
6:35 AM -2.0 °F - -9.0 °F 72% 29.96 in 10.0 mi Calm Calm - N/A   Overcast
6:53 AM -2.9 °F - -8.0 °F 79% 30.27 in 10.0 mi Calm Calm - N/A   Overcast
7:34 AM -2.9 °F - -8.0 °F 79% 29.95 in 10.0 mi Calm Calm - N/A   Overcast
7:53 AM -4.0 °F - -9.0 °F 79% 30.29 in 10.0 mi Calm Calm - N/A   Overcast
8:24 AM -2.0 °F - -8.0 °F 76% 29.96 in 10.0 mi Calm Calm - N/A   Overcast
8:53 AM -0.9 °F - -7.1 °F 75% 30.28 in 10.0 mi Calm Calm - N/A   Overcast
9:11 AM -0.0 °F - -6.0 °F 76% 29.96 in 10.0 mi Calm Calm - N/A   Overcast
9:48 AM -0.4 °F - -5.8 °F 78% 29.95 in 10.0 mi Calm Calm - N/A   Overcast
9:53 AM 1.0 °F - -5.1 °F 75% 30.28 in 10.0 mi Calm Calm - N/A   Overcast
10:34 AM 1.0 °F - -5.1 °F 75% 29.94 in 10.0 mi Calm Calm - N/A   Mostly Cloudy
10:53 AM 1.9 °F - -5.1 °F 72% 30.25 in 10.0 mi Calm Calm - N/A   Scattered Clouds
11:53 AM 5.0 °F -2.1 °F -2.0 °F 73% 30.23 in 10.0 mi South 3.5 mph - N/A   Scattered Clouds
12:53 PM 8.1 °F - -0.0 °F 70% 30.20 in 10.0 mi Calm Calm - N/A   Overcast
1:53 PM 10.0 °F 3.6 °F 1.9 °F 70% 30.17 in 10.0 mi SE 3.5 mph - N/A   Partly Cloudy
2:53 PM 12.0 °F - 3.0 °F 67% 30.13 in 10.0 mi Calm Calm - N/A   Mostly Cloudy
3:53 PM 16.0 °F - 7.0 °F 68% 30.11 in 10.0 mi Calm Calm - N/A   Mostly Cloudy
4:53 PM 17.1 °F - 9.0 °F 71% 30.10 in 10.0 mi Calm Calm - N/A   Overcast
5:53 PM 17.1 °F - 10.0 °F 74% 30.12 in 10.0 mi Calm Calm - N/A   Overcast
6:53 PM 16.0 °F 10.4 °F 10.9 °F 81% 30.12 in 10.0 mi ESE 3.5 mph - N/A   Overcast
7:53 PM 17.1 °F - 10.9 °F 77% 30.11 in 10.0 mi Calm Calm - N/A   Overcast
8:53 PM 17.1 °F 11.7 °F 12.0 °F 81% 30.10 in 10.0 mi WSW 3.5 mph - N/A   Overcast
9:53 PM 17.1 °F - 10.9 °F 77% 30.09 in 10.0 mi Calm Calm - N/A   Overcast
10:53 PM 18.0 °F - 14.0 °F 84% 30.06 in 10.0 mi Calm Calm - N/A   Overcast
11:53 PM 19.0 °F - 14.0 °F 81% 30.04 in 10.0 mi Calm Calm - N/A   Overcast